NUDTSAT (42787 NORAD) Tracking and Keplerian Element Data

This shows tracking and keplerian element data for the satellite.

Feedback or suggestion? Click here.




ElementValue
Catalog42787
NameNUDTSAT
Epoch Orbit32712
Epoch Day127.37413372
Epoch Year2023
RAAN174.9317
Inclination97.139
Eccentricity0.0008139
Argument of Perigee202.404
Mean Anonmoly213.4846
Mean Motion15.81266574
Decay Rate0.00466238
L11 42787U 17036Y 23127.37413372 .00466238 00000+0 22577-2 0 9993
L22 42787 97.1390 174.9317 0008139 202.4040 213.4846 15.81266574327122



Live tracking and technical data element details for NUDTSAT (NORAD 42787). NUDTSAT can be tracked NOW for your location showing map with azimuth and elevation plus other details from your city location.







IsCatalogInMostPopularTable: catalog: 42787, numindb: 637
Update: records affected: 1



GetName: 42787 NUDTSAT

Hit Count: updated at: Fri, 14 Jun 2024 18:09:28 GMT